TimeEST,TemperatureF,Dew PointF,Humidity,Sea Level PressureIn,VisibilityMPH,Wind Direction,Wind SpeedMPH,Gust SpeedMPH,PrecipitationIn,Events,Conditions,WindDirDegrees,DateUTC
12:54 AM,-2.0,-6.0,83,29.91,10.0,Calm,Calm,-,N/A,,Clear,0,2013-01-04 05:54:00
1:54 AM,-0.9,-4.0,87,29.91,10.0,Calm,Calm,-,N/A,,Clear,0,2013-01-04 06:54:00
2:54 AM,-2.9,-7.1,82,29.89,10.0,Calm,Calm,-,N/A,,Clear,0,2013-01-04 07:54:00
3:54 AM,-4.0,-8.0,83,29.88,10.0,Calm,Calm,-,N/A,,Clear,0,2013-01-04 08:54:00
4:54 AM,-0.9,-5.1,83,29.88,10.0,Calm,Calm,-,N/A,,Overcast,0,2013-01-04 09:54:00
5:54 AM,5.0,1.9,87,29.88,10.0,Calm,Calm,-,N/A,,Overcast,0,2013-01-04 10:54:00
6:54 AM,10.0,7.0,87,29.88,10.0,Calm,Calm,-,0.00,,Overcast,0,2013-01-04 11:54:00
7:54 AM,10.9,8.1,88,29.86,10.0,Calm,Calm,-,0.00,,Overcast,0,2013-01-04 12:54:00
8:54 AM,26.1,18.0,71,29.83,10.0,WSW,11.5,18.4,N/A,,Overcast,250,2013-01-04 13:54:00
9:54 AM,28.0,19.0,69,29.83,10.0,SW,6.9,-,N/A,,Clear,230,2013-01-04 14:54:00
10:54 AM,30.0,19.9,66,29.80,10.0,SW,8.1,19.6,N/A,,Clear,220,2013-01-04 15:54:00
11:54 AM,33.1,19.9,59,29.74,10.0,Variable,6.9,-,N/A,,Mostly Cloudy,0,2013-01-04 16:54:00
12:54 PM,32.0,19.0,59,29.72,10.0,Variable,6.9,20.7,N/A,,Clear,0,2013-01-04 17:54:00
1:54 PM,34.0,18.0,52,29.71,10.0,SW,11.5,23.0,N/A,,Clear,230,2013-01-04 18:54:00
2:54 PM,33.1,18.0,54,29.72,10.0,WSW,10.4,21.9,N/A,,Overcast,240,2013-01-04 19:54:00
3:54 PM,33.1,19.0,56,29.72,10.0,SW,10.4,19.6,N/A,,Clear,230,2013-01-04 20:54:00
4:54 PM,32.0,19.0,59,29.73,10.0,Variable,5.8,-,N/A,,Scattered Clouds,0,2013-01-04 21:54:00
5:54 PM,32.0,21.0,64,29.73,10.0,WSW,4.6,-,N/A,,Overcast,240,2013-01-04 22:54:00
6:54 PM,33.1,21.9,64,29.73,10.0,Variable,5.8,-,N/A,,Overcast,0,2013-01-04 23:54:00
7:54 PM,33.1,21.9,64,29.73,10.0,SSW,4.6,-,0.00,,Overcast,200,2013-01-05 00:54:00
8:54 PM,33.1,21.9,64,29.73,10.0,Variable,4.6,-,N/A,,Overcast,0,2013-01-05 01:54:00
9:54 PM,33.1,23.0,66,29.73,10.0,SW,3.5,-,N/A,,Overcast,220,2013-01-05 02:54:00
10:54 PM,32.0,24.1,73,29.74,10.0,WSW,5.8,-,0.00,Rain,Light Rain,240,2013-01-05 03:54:00
11:54 PM,32.0,24.1,73,29.73,10.0,SW,4.6,-,0.00,,Overcast,230,2013-01-05 04:54:00